Change the Weather History Date:

Tuesday, October 9, 2012

  Actual Average Record
Temperature  
Mean Temperature 54 °F -  
Max Temperature 66 °F 74 °F 86 °F (2010)
Min Temperature 44 °F 50 °F 27 °F (2000)
Degree Days  
Heating Degree Days 11    
Growing Degree Days 4 (Base 50)    
Moisture  
Dew Point 50 °F    
Average Humidity 81    
Maximum Humidity 96    
Minimum Humidity 62    
Precipitation  
Precipitation 0.00 in - - ()
Sea Level Pressure  
Sea Level Pressure 30.00 in    
Wind  
Wind Speed 7 mph (SSE)    
Max Wind Speed 17 mph    
Max Gust Speed 29 mph    
Visibility 10 miles    
Events      
Averages and records for this station are not official NWS values.
T = Trace of Precipitation, MM = Missing Value Source: NWS Daily Summary

Daily Weather History Graph

Daily Weather History Graph

Search for Another Location

Airport or City:

Trip Planner

Search our weather history database for the weather conditions in past years. The results will help you decide how hot, cold, wet, or windy it might be!

Date:

Astronomy

Oct. 09, 2012 Rise Set
Actual Time 7:23 AM CDT 6:53 PM CDT
Civil Twilight 6:57 AM CDT 7:18 PM CDT
Nautical Twilight 6:28 AM CDT 7:48 PM CDT
Astronomical Twilight 5:58 AM CDT 8:17 PM CDT
Moon 1:12 AM CDT (10/9) 3:10 PM CDT (10/9)
Length of Visible Light 12h 21m
Length of Day
11h 29m
Last Quarter, 36% of the Moon is Illuminated
Oct 9
Last Quarter
Oct 15
New
Oct 21
First Quarter
Oct 29
Full
Nov 6
Last Quarter

Hourly Weather History & Observations

Time (CDT) Temp. Windchill Dew Point Humidity Pressure Visibility Wind Dir Wind Speed Gust Speed Precip Events Conditions
12:53 AM 44.1 °F 40.8 °F 41.0 °F 89% 30.08 in 10.0 mi SSE 5.8 mph - N/A   Clear
1:53 AM 44.1 °F 40.8 °F 39.9 °F 85% 30.08 in 10.0 mi SSE 5.8 mph - N/A   Clear
3:53 AM 45.0 °F 41.2 °F 41.0 °F 86% 30.05 in 10.0 mi SSE 6.9 mph - N/A   Clear
4:53 AM 45.0 °F 41.8 °F 41.0 °F 86% 30.03 in 10.0 mi SSE 5.8 mph - N/A   Clear
5:53 AM 45.0 °F 41.2 °F 42.1 °F 90% 30.03 in 10.0 mi SSE 6.9 mph - N/A   Clear
6:53 AM 45.0 °F 40.6 °F 42.1 °F 90% 30.04 in 10.0 mi SE 8.1 mph - N/A   Clear
7:53 AM 46.0 °F 41.4 °F 43.0 °F 89% 30.02 in 10.0 mi SSE 9.2 mph - N/A   Clear
8:53 AM 50.0 °F - 45.0 °F 83% 30.02 in 10.0 mi SSE 13.8 mph - N/A   Clear
9:53 AM 54.0 °F - 46.9 °F 77% 30.02 in 10.0 mi SE 13.8 mph - N/A   Scattered Clouds
10:53 AM 59.0 °F - 48.0 °F 67% 30.01 in 10.0 mi SSE 12.7 mph - N/A   Mostly Cloudy
11:53 AM 62.1 °F - 48.9 °F 62% 29.98 in 10.0 mi SSE 17.3 mph 23.0 mph N/A   Overcast
12:53 PM 64.0 °F - 51.1 °F 63% 29.94 in 10.0 mi South 16.1 mph 28.8 mph N/A   Overcast
1:53 PM 64.9 °F - 52.0 °F 63% 29.90 in 10.0 mi SSE 12.7 mph 17.3 mph N/A   Overcast
2:53 PM 64.9 °F - 54.0 °F 68% 29.89 in 10.0 mi South 10.4 mph 19.6 mph N/A   Overcast
3:53 PM 64.9 °F - 54.0 °F 68% 29.91 in 10.0 mi SSW 8.1 mph - N/A   Overcast
4:53 PM 64.0 °F - 55.0 °F 73% 29.94 in 10.0 mi Calm Calm - N/A   Overcast
5:53 PM 63.0 °F - 57.0 °F 81% 29.93 in 10.0 mi SE 6.9 mph - N/A   Overcast
6:53 PM 63.0 °F - 55.9 °F 78% 29.96 in 10.0 mi ENE 3.5 mph - N/A   Overcast
7:53 PM 61.0 °F - 57.0 °F 87% 29.98 in 10.0 mi Calm Calm - N/A   Overcast
8:53 PM 61.0 °F - 57.0 °F 87% 30.01 in 10.0 mi Calm Calm - N/A   Overcast
9:53 PM 57.9 °F - 55.9 °F 93% 30.03 in 10.0 mi ENE 3.5 mph - N/A   Mostly Cloudy
10:53 PM 57.0 °F - 55.9 °F 96% 30.06 in 10.0 mi Calm Calm - N/A   Partly Cloudy
11:53 PM 57.0 °F - 55.9 °F 96% 30.07 in 7.0 mi North 4.6 mph - N/A   Overcast